Showing default

COSMOS 1994, 19785

Orbit data source: Space-Track

COSMOS 1994, 19785 is a payload satellite owned by UNKS (CIS) in LEO that was launched on Fri, 10 Feb 1989 UTC via a TSIKLON-3 launch vehicle from the Plesetsk Missile And Space Complex (PKMTR). Payload-class satellites include a variety of spacecraft equipped with specific instruments for various scientific and technological missions. These include communications satellites like Starlink; space stations such as the ISS; scientific satellites like the Hubble; Earth observation satellites from companies like Planet Labs, Umbra, and HawkEye 360; GPS; miniature CubeSats for education and research; and military/defense satellites.

Loading next visibility...
Identifier
19785, 1989-009A
Orbit
LEO
Country
Flag of CISCIS
Related business
Manufacturer
NPO PM
Mission
Defense Communications
Bus & Motor
STRELA-3, Unknown motor
Mass
225 kg wet, 225 kg dry
Launch date (UTC)
1989-02-10 (37 years ago)
Launch vehicle
TSIKLON-3
Launch site
Plesetsk Missile And Space Complex (PKMTR)
Object type
Payload
Rocket body
Debris
Shape & HBR
Cyl, 0.8 m
Radar Cross Section
1.257 m², Large (>1 m²)

Expand to show TLE details & history
Last TLE update: 8 hours ago

TLE from 8 hours ago
0 COSMOS 1994
1 19785U 89009A   26126.19697810  .00000035  00000-0  13398-3 0  9999
2 19785  82.6250  18.5270 0013850  47.8579 108.6993 12.64341853718071
Epoch: 2026-05-06T04:43Z
TLE epoch observation values (Epoch: 2026-05-06T04:43:38.907Z)
Latitude
23.10624°
Longitude
-99.59615°
Altitude
1,411.199 km
Speed
7.155 km/s
True Right ascension
13h 01m 30s
True Declination
22° 59' 34"
Sunlit
Object was in full shadow at epoch
Visualization orbit readout
Latitude
Unknown
Longitude
Unknown
Altitude
Unknown
Speed
Unknown
Apparent Right ascension
Unknown
Apparent Declination
Unknown
Sunlit
N/A
Visualization observer readout
Local Sidereal Time
20:13:47
Azimuth
Unknown
Elevation
Unknown
Doppler factor
Unknown
Orbital elements
Apogee altitude
1,413.167 km
Perigee altitude
1,391.615 km
Semi-major axis
7,780.528 km
Eccentricity
0.00139
Inclination
82.625°
RAAN
18.527°
Arg. of periapsis
47.8579°
True anomaly
108.84955°
Mean anomaly
108.6993°
Eccentric anomaly
108.77443°
Mean motion
3.16249 °/min
Orbital period
113.83 mins
BSTAR
0.00013398
Loading maneuver chart data...
Computing Atmospheric mass density...
Loading historical data...
Loading historical data...
Loading historical data...
Loading historical data...
Loading historical data...
Loading historical data...
Loading historical data...

Documentation

Showing up to 5 results
|